When you browse on this site, cookies collect data to enhance your experience and personalize the content and advertising you see.
Visit our Privacy Policy to learn more. By continuing to use the site, you agree to this use of cookies and data.
  • En España
  • Lista de países
  • Para 7 días
  • Temperatura del agua
  • El tiempo en el mapa
  • Informadores
  • user-avatar
    Iniciar sesión

    Tiempo cada hora Northallerton

    Hoy, 30 Mayo, Sábado

    Tiempo Temperatura Precipitaciones Viento Presión Humedad
    00:00 +9°C° 0 mm 1 mps 766 mmHg 89%
    01:00 +9°C° 0 mm 1 mps 766 mmHg 89%
    02:00 +8°C° 0 mm 1 mps 766 mmHg 90%
    03:00 +8°C° 0 mm 1 mps 766 mmHg 91%
    04:00 +9°C° 0 mm 1 mps 766 mmHg 88%
    05:00 +10°C° 0 mm 1 mps 766 mmHg 85%
    06:00 +11°C° 0 mm 1 mps 766 mmHg 80%
    07:00 +13°C° 0 mm 2 mps 766 mmHg 73%
    08:00 +14°C° 0 mm 2 mps 766 mmHg 66%
    09:00 +16°C° 0 mm 3 mps 766 mmHg 59%
    10:00 +17°C° 0 mm 4 mps 765 mmHg 59%
    11:00 +18°C° 0 mm 4 mps 765 mmHg 59%
    12:00 +19°C° 0 mm 4 mps 765 mmHg 59%
    13:00 +19°C° 0 mm 5 mps 765 mmHg 60%
    14:00 +19°C° 0 mm 5 mps 765 mmHg 62%
    15:00 +19°C° 0 mm 5 mps 765 mmHg 63%
    16:00 +17°C° 0 mm 5 mps 765 mmHg 67%
    17:00 +16°C° 0 mm 5 mps 765 mmHg 70%
    18:00 +17°C° 0 mm 4 mps 764 mmHg 73%
    19:00 +14°C° 0 mm 4 mps 765 mmHg 80%
    20:00 +12°C° 0 mm 3 mps 765 mmHg 87%
    21:00 +10°C° 0 mm 2 mps 765 mmHg 94%
    22:00 +9°C° 0 mm 2 mps 766 mmHg 94%
    23:00 +10°C° 0 mm 1 mps 766 mmHg 94%

    Mañana, 31 Mayo, Domingo

    Tiempo Temperatura Precipitaciones Viento Presión Humedad
    00:00 +9°C° 0 mm 1 mps 766 mmHg 94%
    01:00 +9°C° 0 mm 1 mps 766 mmHg 94%
    02:00 +9°C° 0 mm 1 mps 766 mmHg 94%
    03:00 +8°C° 0 mm 1 mps 766 mmHg 94%
    04:00 +9°C° 0 mm 1 mps 766 mmHg 91%
    05:00 +11°C° 0 mm 1 mps 766 mmHg 89%
    06:00 +12°C° 0 mm 1 mps 766 mmHg 86%
    07:00 +13°C° 0 mm 2 mps 766 mmHg 78%
    08:00 +15°C° 0 mm 2 mps 766 mmHg 69%
    09:00 +17°C° 0 mm 2 mps 766 mmHg 60%
    10:00 +18°C° 0 mm 3 mps 766 mmHg 59%
    11:00 +19°C° 0 mm 3 mps 766 mmHg 58%
    12:00 +20°C° 0 mm 3 mps 766 mmHg 56%
    13:00 +20°C° 0 mm 4 mps 766 mmHg 58%
    14:00 +20°C° 0 mm 4 mps 766 mmHg 60%
    15:00 +20°C° 0 mm 4 mps 766 mmHg 62%
    16:00 +19°C° 0 mm 4 mps 766 mmHg 64%
    17:00 +19°C° 0 mm 4 mps 766 mmHg 67%
    18:00 +18°C° 0 mm 4 mps 766 mmHg 70%
    19:00 +16°C° 0 mm 3 mps 766 mmHg 76%
    20:00 +14°C° 0 mm 2 mps 766 mmHg 82%
    21:00 +12°C° 0 mm 1 mps 767 mmHg 88%
    22:00 +11°C° 0 mm 1 mps 767 mmHg 89%
    23:00 +10°C° 0 mm 1 mps 767 mmHg 89%

    Pasado mañana, 1 Junio, Lunes

    Tiempo Temperatura Precipitaciones Viento Presión Humedad
    00:00 +10°C° 0 mm 1 mps 767 mmHg 90%
    01:00 +10°C° 0 mm 1 mps 766 mmHg 90%
    02:00 +9°C° 0 mm 1 mps 766 mmHg 90%
    03:00 +9°C° 0 mm 1 mps 766 mmHg 90%
    04:00 +10°C° 0 mm 1 mps 766 mmHg 89%
    05:00 +10°C° 0 mm 2 mps 766 mmHg 87%
    06:00 +12°C° 0 mm 2 mps 767 mmHg 85%
    07:00 +13°C° 0 mm 3 mps 766 mmHg 79%
    08:00 +16°C° 0 mm 3 mps 766 mmHg 73%
    09:00 +17°C° 0 mm 4 mps 766 mmHg 67%
    10:00 +17°C° 0 mm 5 mps 766 mmHg 65%
    11:00 +17°C° 0 mm 5 mps 766 mmHg 63%
    12:00 +19°C° 0 mm 5 mps 766 mmHg 61%
    13:00 +19°C° 0 mm 5 mps 766 mmHg 60%
    14:00 +19°C° 0 mm 5 mps 766 mmHg 59%
    15:00 +17°C° 0 mm 5 mps 766 mmHg 58%
    16:00 +17°C° 0 mm 5 mps 765 mmHg 62%
    17:00 +17°C° 0 mm 4 mps 765 mmHg 66%
    18:00 +15°C° 0 mm 4 mps 765 mmHg 70%
    19:00 +14°C° 0 mm 3 mps 765 mmHg 78%
    20:00 +13°C° 0 mm 2 mps 765 mmHg 85%
    21:00 +10°C° 0 mm 2 mps 765 mmHg 92%
    22:00 +10°C° 0 mm 2 mps 765 mmHg 93%
    23:00 +10°C° 0 mm 1 mps 765 mmHg 94%

    2 Junio, Martes

    Tiempo Temperatura Precipitaciones Viento Presión Humedad
    00:00 +10°C° 0 mm 1 mps 765 mmHg 94%
    01:00 +9°C° 0 mm 1 mps 764 mmHg 94%
    02:00 +9°C° 0 mm 1 mps 764 mmHg 94%
    03:00 +9°C° 0 mm 1 mps 764 mmHg 94%
    04:00 +10°C° 0 mm 1 mps 763 mmHg 92%
    05:00 +11°C° 0 mm 1 mps 763 mmHg 90%
    06:00 +12°C° 0 mm 1 mps 763 mmHg 88%
    07:00 +14°C° 0 mm 1 mps 762 mmHg 82%
    08:00 +15°C° 0 mm 1 mps 762 mmHg 76%
    09:00 +18°C° 0 mm 1 mps 762 mmHg 71%
    10:00 +19°C° 0 mm 1 mps 762 mmHg 69%
    11:00 +20°C° 0 mm 1 mps 761 mmHg 66%
    12:00 +21°C° 0 mm 1 mps 761 mmHg 64%
    13:00 +21°C° 0 mm 1 mps 760 mmHg 64%
    14:00 +21°C° 0 mm 1 mps 759 mmHg 65%
    15:00 +20°C° 0 mm 2 mps 759 mmHg 65%
    16:00 +20°C° 0 mm 2 mps 758 mmHg 69%
    17:00 +19°C° 0 mm 2 mps 758 mmHg 73%
    18:00 +18°C° 0 mm 3 mps 758 mmHg 78%
    19:00 +17°C° 0 mm 2 mps 757 mmHg 82%
    20:00 +15°C° 0 mm 1 mps 757 mmHg 87%
    21:00 +13°C° 0 mm 1 mps 757 mmHg 92%
    22:00 +13°C° 0 mm 1 mps 757 mmHg 92%
    23:00 +12°C° 0 mm 1 mps 757 mmHg 92%

    3 Junio, Miércoles

    Tiempo Temperatura Precipitaciones Viento Presión Humedad
    00:00 +12°C° 0 mm 1 mps 757 mmHg 92%
    01:00 +12°C° 0 mm 2 mps 757 mmHg 93%
    02:00 +12°C° 0 mm 2 mps 757 mmHg 94%
    03:00 +10°C° 0 mm 3 mps 757 mmHg 96%
    04:00 +11°C° 0 mm 4 mps 757 mmHg 93%
    05:00 +10°C° 0 mm 5 mps 757 mmHg 90%
    06:00 +11°C° 0 mm 6 mps 757 mmHg 87%
    07:00 +12°C° 0 mm 7 mps 757 mmHg 83%
    08:00 +12°C° 0 mm 7 mps 757 mmHg 79%
    09:00 +13°C° 0 mm 8 mps 758 mmHg 76%
    10:00 +13°C° 0 mm 8 mps 758 mmHg 74%
    11:00 +15°C° 0 mm 8 mps 758 mmHg 73%
    12:00 +15°C° 0 mm 9 mps 758 mmHg 72%
    13:00 +15°C° 0 mm 9 mps 758 mmHg 74%
    14:00 +13°C° 0 mm 9 mps 758 mmHg 76%
    15:00 +13°C° 0 mm 8 mps 758 mmHg 78%
    16:00 +12°C° 0 mm 8 mps 758 mmHg 79%
    17:00 +11°C° 0 mm 8 mps 758 mmHg 81%
    18:00 +11°C° 0 mm 8 mps 759 mmHg 83%
    19:00 +10°C° 0 mm 8 mps 759 mmHg 83%
    20:00 +10°C° 0 mm 8 mps 759 mmHg 83%
    21:00 +10°C° 0 mm 7 mps 760 mmHg 83%
    22:00 +9°C° 0 mm 7 mps 760 mmHg 83%
    23:00 +9°C° 0 mm 6 mps 760 mmHg 83%

    4 Junio, Jueves

    Tiempo Temperatura Precipitaciones Viento Presión Humedad
    00:00 +9°C° 0 mm 6 mps 760 mmHg 83%
    01:00 +8°C° 0 mm 6 mps 759 mmHg 84%
    02:00 +8°C° 0 mm 5 mps 759 mmHg 86%
    03:00 +7°C° 0 mm 5 mps 759 mmHg 87%
    04:00 +8°C° 0 mm 5 mps 759 mmHg 85%
    05:00 +8°C° 0 mm 4 mps 758 mmHg 83%
    06:00 +8°C° 0 mm 4 mps 758 mmHg 81%
    07:00 +10°C° 0 mm 4 mps 758 mmHg 78%
    08:00 +11°C° 0 mm 3 mps 758 mmHg 75%
    09:00 +11°C° 0 mm 3 mps 757 mmHg 72%
    10:00 +14°C° 0 mm 2 mps 757 mmHg 70%
    11:00 +15°C° 0 mm 1 mps 757 mmHg 67%
    12:00 +16°C° 0 mm 1 mps 756 mmHg 65%
    13:00 +18°C° 0 mm 1 mps 756 mmHg 63%
    14:00 +19°C° 0 mm 1 mps 755 mmHg 62%
    15:00 +20°C° 0 mm 1 mps 755 mmHg 60%
    16:00 +19°C° 0 mm 1 mps 754 mmHg 63%
    17:00 +18°C° 0 mm 2 mps 754 mmHg 65%
    18:00 +18°C° 0 mm 2 mps 754 mmHg 68%
    19:00 +16°C° 0 mm 2 mps 753 mmHg 74%
    20:00 +14°C° 0 mm 2 mps 753 mmHg 81%
    21:00 +12°C° 0 mm 1 mps 753 mmHg 87%
    22:00 +12°C° 0 mm 2 mps 753 mmHg 87%
    23:00 +10°C° 0 mm 2 mps 752 mmHg 88%
    Mostrar más